1537264800.69,48534,21.19,74720.3,23.41,-11.93,-12.61,0,*49
1537264801.95,48535,21.19,74720.3,23.41,-11.41,-12.07,0,*47
1537264803.18,48536,21.19,74718.3,23.43,-11.41,-11.97,0,*4C
1537264804.4,48537,21.19,74712.8,23.43,-11.85,-12.47,0,*4B
1537264805.65,48538,21.19,74718.3,23.47,-11.77,-12.53,0,*48
1537264806.9,48539,21.19,74720.0,23.45,-12.15,-13.15,0,*4F
1537264808.13,48540,21.19,74716.8,23.45,-12.29,-13.07,0,*4D
1537264809.41,48541,21.19,74718.0,23.45,-11.93,-12.65,0,*4B
1537264810.63,48542,21.19,74718.0,23.45,-12.93,-13.73,0,*4D
1537264811.89,48543,21.19,74716.3,23.45,-13.01,-13.73,0,*46
1537264813.11,48544,21.19,74716.3,23.43,-13.79,-14.65,0,*48
1537264814.31,48545,21.19,74712.8,23.43,-13.47,-14.19,0,*4F
1537264815.56,48546,21.19,74716.3,23.41,-13.23,-13.97,0,*4D
1537264816.84,48547,21.19,74718.3,23.41,-12.71,-13.61,0,*43
1537264818.07,48548,21.19,74718.8,23.39,-12.03,-12.83,0,*4B
1537264819.32,48549,21.19,74718.5,23.41,-11.41,-11.97,0,*46
1537264820.6,48550,21.19,74716.5,23.41,-11.37,-12.11,0,*42
1537264821.83,48551,21.19,74716.0,23.43,-11.63,-12.21,0,*43
1537264823.05,48552,21.19,74718.0,23.43,-11.15,-11.77,0,*41
1537264824.25,48553,21.19,74716.8,23.47,-10.89,-11.45,0,*41
1537264825.5,48554,21.19,74718.3,23.45,-11.11,-11.67,0,*44
1537264826.71,48555,21.19,74716.0,23.47,-10.93,-11.41,0,*48
1537264827.93,48556,21.19,74718.0,23.49,-10.85,-11.29,0,*4C
1537264829.18,48557,21.19,74716.8,23.51,-10.85,-11.37,0,*4B
1537264830.41,48558,21.19,74716.0,23.51,-10.57,-11.11,0,*4F
1537264831.66,48559,21.19,74716.8,23.51,-11.73,-12.39,0,*40
1537264832.92,48560,21.19,74714.5,23.53,-12.07,-12.75,0,*40
1537264834.15,48561,21.19,74716.3,23.53,-12.75,-13.51,0,*43
1537264835.37,48562,21.19,74714.5,23.53,-13.07,-13.79,0,*4E
1537264836.65,48563,21.19,74716.3,23.51,-11.81,-12.53,0,*48
1537264837.91,48564,21.19,74718.3,23.51,-11.11,-11.63,0,*46
1537264839.16,48565,21.19,74716.8,23.51,-10.89,-11.51,0,*46
1537264840.39,48566,21.19,74716.0,23.53,-11.23,-11.89,0,*43
1537264841.64,48567,21.19,74716.0,23.55,-11.59,-12.29,0,*40
1537264842.89,48568,21.19,74712.8,23.55,-11.73,-12.39,0,*46
1537264844.15,48569,21.19,74718.0,23.55,-11.45,-11.97,0,*45
1537264845.4,48570,21.19,74718.5,23.55,-11.55,-12.29,0,*4A
1537264846.63,48571,21.19,74718.0,23.61,-11.67,-12.43,0,*41
1537264847.88,48572,21.19,74714.5,23.57,-11.55,-12.15,0,*45
1537264849.11,48573,21.19,74718.3,23.57,-11.85,-12.47,0,*4E
1537264850.34,48574,21.19,74718.5,23.61,-11.41,-12.07,0,*40
1537264851.59,48575,21.19,74716.0,23.61,-11.97,-12.71,0,*4B
1537264852.82,48576,21.19,74718.5,23.57,-12.03,-12.71,0,*43
1537264854.07,48577,21.19,74718.5,23.61,-12.07,-12.65,0,*46
1537264855.32,48578,21.19,74714.0,23.61,-11.81,-12.57,0,*45
1537264856.56,48579,21.19,74712.8,23.57,-12.61,-13.37,0,*4B
1537264857.76,48580,21.19,74718.5,23.57,-12.97,-13.69,0,*4F
1537264858.98,48581,21.19,74718.3,23.57,-12.97,-13.61,0,*46
1537264860.18,48582,21.19,74716.5,23.57,-12.47,-13.23,0,*4E
1537264861.43,48583,21.19,74716.0,23.55,-12.89,-13.61,0,*49
1537264862.66,48584,21.19,74716.0,23.57,-12.57,-13.23,0,*49
1537264863.91,48585,21.19,74720.0,23.53,-11.89,-12.61,0,*4B
1537264865.14,48586,21.19,74714.5,23.55,-12.25,-12.89,0,*4D
1537264866.38,48587,21.19,74718.0,23.55,-13.15,-13.83,0,*45
1537264867.61,48588,21.19,74716.8,23.55,-12.89,-13.55,0,*45
1537264868.86,48589,21.19,74718.8,23.55,-13.01,-13.73,0,*41
1537264870.11,48590,21.19,74718.8,23.53,-12.15,-12.75,0,*4C
1537264871.37,48591,21.19,74716.8,23.53,-11.89,-12.53,0,*4F
1537264872.6,48592,21.19,74718.8,23.55,-12.47,-13.23,0,*4D
1537264873.8,48593,21.19,74718.0,23.53,-12.43,-13.07,0,*48
1537264875.0,48594,21.19,74716.0,23.53,-12.43,-13.15,0,*4C
1537264876.22,48595,21.19,74716.3,23.55,-12.39,-13.11,0,*42
1537264877.47,48596,21.19,74712.5,23.55,-12.03,-12.71,0,*4F
1537264878.72,48597,21.19,74712.8,23.55,-11.73,-12.47,0,*4F
1537264879.97,48598,21.19,74714.0,23.55,-11.59,-12.25,0,*4C
1537264881.23,48599,21.19,74716.5,23.55,-11.01,-11.77,0,*44
1537264882.48,48600,21.19,74714.0,23.55,-11.63,-12.39,0,*4A
1537264883.69,48601,21.19,74714.3,23.57,-11.45,-12.03,0,*44
1537264884.91,48602,21.19,74716.8,23.57,-12.25,-13.01,0,*41
1537264886.13,48603,21.19,74714.0,23.57,-13.15,-13.97,0,*4D
1537264887.36,48604,21.19,74714.5,23.57,-11.63,-12.25,0,*41
1537264888.62,48605,21.19,74714.8,23.61,-12.07,-12.71,0,*45
1537264889.84,48606,21.19,74718.0,23.61,-12.97,-13.79,0,*46
1537264891.06,48607,21.19,74714.3,23.57,-13.11,-13.83,0,*48
1537264892.28,48608,21.19,74716.0,23.57,-12.15,-12.89,0,*49
1537264893.5,48609,21.19,74716.0,23.57,-11.73,-12.25,0,*4D
1537264894.73,48610,21.19,74718.8,23.57,-11.63,-12.43,0,*44
1537264895.92,48611,21.19,74716.5,23.57,-12.39,-13.15,0,*4B
1537264897.14,48612,21.19,74712.5,23.57,-12.75,-13.47,0,*47
1537264898.36,48613,21.19,74716.0,23.57,-12.75,-13.47,0,*46
1537264899.59,48614,21.19,74714.3,23.57,-13.23,-13.97,0,*4E
1537264900.84,48615,21.19,74716.0,23.55,-12.75,-13.43,0,*46
1537264902.09,48616,21.19,74716.3,23.55,-11.63,-12.43,0,*40
1537264903.36,48617,21.19,74712.5,23.55,-11.89,-12.61,0,*45
1537264904.61,48618,21.19,74718.8,23.55,-13.11,-13.87,0,*40
1537264905.88,48619,21.19,74716.0,23.55,-12.61,-13.29,0,*43
1537264907.1,48620,21.19,74716.5,23.55,-12.47,-13.15,0,*42
1537264908.36,48621,21.19,74718.0,23.55,-11.59,-12.29,0,*41
1537264909.61,48622,21.19,74716.3,23.55,-11.45,-12.15,0,*40
1537264910.89,48623,21.19,74716.0,23.55,-11.59,-12.15,0,*4C
1537264912.14,48624,21.19,74712.0,23.57,-11.59,-12.15,0,*49
1537264913.39,48625,21.19,74716.3,23.61,-11.37,-12.07,0,*46
1537264914.64,48626,21.19,74716.0,23.61,-11.81,-12.71,0,*49
1537264915.87,48627,21.19,74716.5,23.57,-11.77,-12.47,0,*41
1537264917.07,48628,21.19,74716.8,23.61,-12.25,-13.07,0,*4A
1537264918.28,48629,21.19,74718.5,23.57,-12.97,-13.79,0,*4E
1537264919.48,48630,21.19,74714.0,23.57,-12.39,-13.11,0,*4C
1537264920.73,48631,21.19,74712.5,23.57,-12.57,-13.37,0,*41
1537264921.95,48632,21.19,74716.5,23.61,-11.51,-12.25,0,*40
1537264923.18,48633,21.19,74718.0,23.57,-10.97,-11.59,0,*47
1537264924.4,48634,21.19,74714.0,23.57,-11.19,-11.89,0,*4A
1537264925.66,48635,21.19,74714.3,23.61,-11.55,-12.53,0,*42
1537264926.91,48636,21.19,74714.8,23.61,-12.11,-12.83,0,*4F
1537264928.14,48637,21.19,74718.3,23.61,-11.67,-12.25,0,*40
1537264929.36,48638,21.19,74714.8,23.61,-13.01,-13.73,0,*4F
1537264930.57,48639,21.19,74716.8,23.61,-12.93,-13.55,0,*40
1537264931.81,48640,21.19,74714.8,23.57,-12.71,-13.37,0,*43
1537264933.06,48641,21.19,74712.8,23.61,-11.81,-12.53,0,*48
1537264934.27,48642,21.19,74714.8,23.57,-11.41,-12.03,0,*47
1537264935.46,48643,21.19,74718.5,23.57,-10.89,-11.45,0,*42
1537264936.7,48644,21.19,74716.0,23.61,-10.97,-11.55,0,*4E
1537264937.93,48645,21.19,74714.0,23.61,-11.41,-12.11,0,*46
1537264939.17,48646,21.19,74712.8,23.63,-12.65,-13.65,0,*40
1537264940.4,48647,21.19,74716.5,23.63,-12.93,-13.65,0,*48
1537264941.64,48648,21.19,74712.5,23.63,-12.61,-13.47,0,*4A
1537264942.86,48649,21.19,74716.5,23.57,-11.73,-12.47,0,*4D
1537264944.08,48650,21.19,74714.3,23.61,-11.51,-12.25,0,*44
1537264945.31,48651,21.19,74718.8,23.61,-11.67,-12.39,0,*4D
1537264946.56,48652,21.19,74714.8,23.61,-12.57,-13.33,0,*45
1537264947.82,48653,21.19,74714.3,23.61,-12.07,-12.83,0,*4B
1537264949.05,48654,21.19,74714.3,23.61,-11.67,-12.43,0,*45
1537264950.28,48655,21.19,74714.3,23.61,-12.07,-12.93,0,*4C
1537264951.48,48656,21.19,74716.3,23.61,-12.25,-13.07,0,*43
1537264952.73,48657,21.19,74716.8,23.61,-12.07,-12.83,0,*4F
1537264953.93,48658,21.19,74714.8,23.57,-12.29,-13.15,0,*47
1537264955.13,48659,21.19,74716.0,23.61,-12.39,-13.19,0,*4E
1537264956.36,48660,21.19,74712.8,23.61,-11.97,-12.93,0,*40
1537264957.59,48661,21.19,74714.3,23.61,-12.35,-13.07,0,*46
1537264958.79,48662,21.19,74712.0,23.61,-12.25,-13.11,0,*43
1537264960.01,48663,21.19,74718.3,23.57,-12.29,-13.01,0,*4A
1537264961.21,48664,21.19,74716.8,23.57,-12.29,-13.15,0,*48
1537264962.47,48665,21.19,74716.8,23.61,-12.53,-13.33,0,*45
1537264963.67,48666,21.19,74712.0,23.61,-12.39,-13.11,0,*4A
1537264964.86,48667,21.19,74714.0,23.57,-12.39,-13.11,0,*4E
1537264966.08,48668,21.19,74714.0,23.57,-12.29,-13.01,0,*41
1537264967.31,48669,21.19,74712.8,23.61,-12.35,-13.07,0,*4E
1537264968.57,48670,21.19,74714.0,23.61,-12.07,-12.71,0,*47
1537264969.77,48671,21.19,74714.8,23.61,-12.39,-13.11,0,*4C
1537264970.96,48672,21.19,74718.8,23.61,-12.39,-13.07,0,*48
1537264972.21,48673,21.19,74718.8,23.57,-11.97,-12.61,0,*4A
1537264973.46,48674,21.19,74716.0,23.57,-11.85,-12.57,0,*4B
1537264974.71,48675,21.19,74718.8,23.61,-12.11,-12.79,0,*4D
1537264975.96,48676,21.19,74714.8,23.57,-12.61,-13.37,0,*47
1537264977.21,48677,21.19,74716.0,23.57,-11.97,-12.71,0,*4F
1537264978.44,48678,21.19,74714.3,23.61,-11.55,-12.21,0,*4E
1537264979.67,48679,21.19,74718.3,23.61,-11.55,-12.25,0,*4B
1537264980.9,48680,21.19,74712.8,23.57,-11.55,-12.29,0,*44
1537264982.15,48681,21.19,74718.5,23.61,-12.11,-12.83,0,*43
1537264983.38,48682,21.19,74714.8,23.61,-11.67,-12.25,0,*4E
1537264984.6,48683,21.19,74716.8,23.65,-11.19,-11.85,0,*4B
1537264985.85,48684,21.19,74712.5,23.65,-11.33,-11.89,0,*48
1537264987.1,48685,21.19,74712.5,23.63,-11.19,-11.67,0,*47
1537264988.32,48686,21.19,74712.0,23.65,-11.15,-11.85,0,*42
1537264989.57,48687,21.19,74712.0,23.65,-12.11,-12.83,0,*41
1537264990.82,48688,21.19,74718.0,23.65,-12.11,-12.75,0,*47
1537264992.08,48689,21.19,74718.8,23.65,-14.47,-15.35,0,*40
1537264993.33,48690,21.19,74712.3,23.63,-13.01,-13.65,0,*48
1537264994.58,48691,21.19,74712.0,23.63,-11.77,-12.47,0,*4B
1537264995.78,48692,21.19,74712.5,23.61,-13.19,-13.93,0,*48
1537264997.01,48693,21.19,74714.3,23.61,-13.97,-14.69,0,*4D
1537264998.27,48694,21.19,74714.0,23.57,-13.83,-14.55,0,*45
1537264999.55,48695,21.19,74714.8,23.55,-14.01,-14.75,0,*49
1537265000.75,48696,21.19,74712.3,23.53,-14.37,-15.07,0,*4D
1537265002.02,48697,21.19,74714.0,23.53,-14.05,-14.51,0,*4F
1537265003.25,48698,21.19,74714.0,23.51,-13.55,-14.33,0,*44
1537265004.47,48699,21.19,74712.5,23.49,-12.83,-13.51,0,*45
1537265005.74,48700,21.19,74714.0,23.51,-12.83,-13.37,0,*4D
1537265006.97,48701,21.19,74714.8,23.49,-12.35,-12.93,0,*47
1537265008.2,48702,21.19,74712.8,23.49,-12.21,-12.83,0,*40
1537265009.46,48703,21.19,74716.0,23.51,-12.53,-13.11,0,*47
1537265010.66,48704,21.19,74714.8,23.49,-12.97,-13.69,0,*4E
1537265011.94,48705,21.19,74712.8,23.51,-11.93,-12.65,0,*4C
1537265013.17,48706,21.19,74714.0,23.49,-12.21,-12.83,0,*44
1537265014.4,48707,21.19,74714.3,23.49,-12.21,-12.83,0,*45
1537265015.66,48708,21.19,74714.8,23.49,-12.07,-12.79,0,*4B
1537265016.91,48709,21.19,74716.0,23.51,-13.19,-13.83,0,*49
1537265018.14,48710,21.19,74714.3,23.49,-13.19,-13.97,0,*4D
1537265019.37,48711,21.19,74716.0,23.49,-13.07,-13.83,0,*46
1537265020.64,48712,21.19,74714.0,23.45,-12.61,-13.33,0,*43
1537265021.87,48713,21.19,74716.0,23.47,-12.57,-13.23,0,*44
1537265023.07,48714,21.19,74714.8,23.47,-12.25,-12.89,0,*47
1537265024.27,48715,21.19,74714.5,23.47,-12.39,-13.11,0,*4B
1537265025.49,48716,21.19,74714.0,23.47,-11.73,-12.39,0,*4E
1537265026.75,48717,21.19,74712.5,23.49,-11.85,-12.53,0,*44
1537265027.95,48718,21.19,74712.3,23.49,-12.47,-13.11,0,*41
1537265029.17,48719,21.19,74712.5,23.49,-12.83,-13.51,0,*4C
1537265030.39,48720,21.19,74718.8,23.49,-13.07,-13.79,0,*41
1537265031.62,48721,21.19,74714.8,23.51,-12.39,-12.97,0,*44
1537265032.81,48722,21.19,74714.3,23.47,-12.39,-12.97,0,*40
1537265034.07,48723,21.19,74718.0,23.49,-12.11,-12.83,0,*40
1537265035.27,48724,21.19,74714.8,23.49,-12.47,-13.23,0,*4F
1537265036.47,48725,21.19,74710.5,23.49,-12.47,-13.11,0,*4F
1537265037.7,48726,21.19,74714.8,23.49,-11.73,-12.39,0,*43
1537265038.9,48727,21.19,74712.0,23.47,-12.25,-12.89,0,*47
1537265040.13,48728,21.19,74714.8,23.47,-13.69,-14.47,0,*45
1537265041.38,48729,21.19,74714.8,23.45,-13.33,-14.15,0,*4E
1537265042.66,48730,21.19,74714.8,23.45,-12.35,-13.01,0,*43
1537265043.91,48731,21.19,74718.3,23.45,-12.35,-13.07,0,*44
1537265045.15,48732,21.19,74712.8,23.45,-12.79,-13.47,0,*4B
1537265046.42,48733,21.19,74712.3,23.45,-12.61,-13.29,0,*4B
1537265047.64,48734,21.19,74716.0,23.45,-12.89,-13.43,0,*46
1537265048.92,48735,21.19,74714.0,23.45,-12.35,-13.01,0,*46
1537265050.19,48736,21.19,74714.5,23.45,-12.35,-13.01,0,*45
1537265051.42,48737,21.19,74712.8,23.43,-12.71,-13.23,0,*42
1537265052.63,48738,21.19,74712.8,23.43,-13.11,-13.79,0,*45
1537265053.88,48739,21.19,74712.5,23.43,-13.33,-14.05,0,*48
1537265055.11,48740,21.19,74714.0,23.41,-14.33,-15.07,0,*40
1537265056.31,48741,21.19,74714.0,23.39,-13.65,-14.37,0,*48
1537265057.54,48742,21.19,74718.3,23.37,-13.47,-14.15,0,*45
1537265058.75,48743,21.19,74714.0,23.39,-12.25,-12.89,0,*4C
1537265060.01,48744,21.19,74716.8,23.39,-11.97,-12.75,0,*42
1537265061.26,48745,21.19,74712.5,23.39,-11.29,-11.81,0,*4E
1537265062.54,48746,21.19,74714.3,23.41,-11.29,-11.97,0,*45
1537265063.76,48747,21.19,74718.0,23.43,-10.85,-11.29,0,*44
1537265065.01,48748,21.19,74714.3,23.43,-11.51,-12.11,0,*4B
1537265066.27,48749,21.19,74712.5,23.45,-12.79,-13.51,0,*40
1537265067.52,48750,21.19,74714.5,23.45,-12.35,-12.93,0,*4F
1537265068.79,48751,21.19,74712.0,23.45,-12.61,-13.29,0,*4F
1537265070.02,48752,21.19,74714.5,23.43,-11.81,-12.21,0,*4E
1537265071.26,48753,21.19,74714.8,23.43,-11.37,-11.85,0,*4F
1537265072.54,48754,21.19,74714.8,23.45,-11.73,-12.35,0,*46
1537265073.8,48755,21.19,74716.0,23.45,-11.45,-12.07,0,*43
1537265075.03,48756,21.19,74714.3,23.47,-11.01,-11.55,0,*46
1537265076.29,48757,21.19,74714.3,23.47,-11.29,-11.73,0,*49
1537265077.54,48758,21.19,74716.0,23.47,-12.15,-12.83,0,*46
1537265078.8,48759,21.19,74714.0,23.45,-12.21,-12.79,0,*47
1537265080.04,48760,21.19,74712.5,23.47,-12.61,-13.37,0,*40
1537265081.29,48761,21.19,74714.0,23.47,-12.11,-12.83,0,*48
1537265082.54,48762,21.19,74718.3,23.45,-12.65,-13.43,0,*47
1537265083.76,48763,21.19,74712.8,23.45,-12.47,-13.15,0,*45
1537265084.99,48764,21.19,74714.8,23.47,-12.35,-12.97,0,*4E
1537265086.27,48765,21.19,74716.3,23.45,-12.15,-12.75,0,*43
1537265087.52,48766,21.19,74712.8,23.47,-11.97,-12.61,0,*4E
1537265088.72,48767,21.19,74714.5,23.47,-12.89,-13.55,0,*45
1537265089.98,48768,21.19,74712.5,23.45,-12.61,-13.19,0,*46
1537265091.26,48769,21.19,74714.0,23.45,-11.93,-12.57,0,*42
1537265092.53,48770,21.19,74712.5,23.45,-12.65,-13.29,0,*48
1537265093.79,48771,21.19,74718.0,23.45,-11.19,-11.63,0,*4D
1537265095.06,48772,21.19,74714.8,23.45,-12.07,-12.65,0,*47
1537265096.33,48773,21.19,74716.5,23.45,-12.61,-13.33,0,*44
1537265097.58,48774,21.19,74712.0,23.45,-12.75,-13.43,0,*41
1537265098.8,48775,21.19,74712.5,23.45,-12.89,-13.47,0,*47
1537265100.02,48776,21.19,74710.8,23.45,-13.15,-13.73,0,*47
1537265101.27,48777,21.19,74714.0,23.45,-13.07,-13.79,0,*4F
1537265102.49,48778,21.19,74718.3,23.41,-13.07,-13.65,0,*49
1537265103.74,48779,21.19,74714.0,23.41,-12.61,-13.19,0,*42
1537265104.97,48780,21.19,74714.5,23.41,-12.39,-12.97,0,*4E
1537265106.24,48781,21.19,74714.5,23.41,-12.35,-12.83,0,*46
1537265107.53,48782,21.19,74712.3,23.41,-12.07,-12.79,0,*41
1537265108.77,48783,21.19,74718.3,23.43,-12.79,-13.37,0,*40
1537265110.05,48784,21.19,74714.5,23.41,-12.71,-13.33,0,*49
1537265111.33,48785,21.19,74712.0,23.41,-12.07,-12.79,0,*46
1537265112.62,48786,21.19,74716.5,23.41,-11.93,-12.71,0,*43
1537265113.84,48787,21.19,74718.8,23.41,-12.39,-13.07,0,*41
1537265115.09,48788,21.19,74718.8,23.41,-13.37,-14.11,0,*41
1537265116.31,48789,21.19,74718.3,23.41,-13.19,-13.93,0,*41
1537265117.52,48790,21.19,74714.8,23.39,-12.29,-13.11,0,*4E
1537265118.75,48791,21.19,74714.8,23.39,-12.75,-13.51,0,*42
1537265119.98,48792,21.19,74716.0,23.39,-12.71,-13.43,0,*46
1537265121.2,48793,21.19,74718.3,23.39,-12.65,-13.51,0,*41
1537265122.46,48794,21.19,74716.5,23.37,-13.19,-14.05,0,*44
1537265123.7,48795,21.19,74714.8,23.37,-12.89,-13.55,0,*4F
1537265124.96,48796,21.19,74714.8,23.37,-12.15,-12.93,0,*42
1537265126.19,48797,21.19,74718.8,23.39,-12.65,-13.23,0,*40
1537265127.42,48798,21.19,74714.8,23.37,-12.93,-13.55,0,*49
1537265128.67,48799,21.19,74718.3,23.37,-12.43,-13.01,0,*44
1537265129.92,48800,21.19,74718.5,23.37,-12.61,-13.15,0,*4E
1537265131.18,48801,21.19,74716.3,23.39,-12.15,-12.75,0,*45
1537265132.43,48802,21.19,74714.5,23.37,-12.75,-13.47,0,*4E
1537265133.69,48803,21.19,74718.8,23.33,-12.75,-13.23,0,*49
1537265134.95,48804,21.19,74714.0,23.33,-12.21,-12.79,0,*41
1537265136.19,48805,21.19,74712.5,23.33,-12.21,-12.93,0,*44
1537265137.47,48806,21.19,74714.0,23.33,-12.11,-12.75,0,*4C
1537265138.74,48807,21.19,74714.0,23.33,-11.97,-12.61,0,*45
1537265140.0,48808,21.19,74714.8,23.33,-12.35,-12.93,0,*4C
1537265141.28,48809,21.19,74714.5,23.33,-11.77,-12.35,0,*44
1537265142.56,48810,21.19,74716.3,23.33,-11.97,-12.53,0,*42
1537265143.84,48811,21.19,74714.5,23.37,-11.89,-12.57,0,*4C
1537265145.1,48812,21.19,74718.8,23.37,-11.81,-12.39,0,*4F
1537265146.35,48813,21.19,74716.3,23.39,-11.89,-12.53,0,*44
1537265147.62,48814,21.19,74718.0,23.37,-12.21,-12.75,0,*48
1537265148.91,48815,21.19,74716.3,23.37,-11.93,-12.57,0,*43
1537265150.13,48816,21.19,74718.8,23.39,-12.39,-13.01,0,*4F
1537265151.39,48817,21.19,74718.0,23.39,-11.59,-12.15,0,*4F
1537265152.64,48818,21.19,74712.3,23.41,-11.81,-12.39,0,*44
1537265153.87,48819,21.19,74718.8,23.39,-11.85,-12.39,0,*4E
1537265155.15,48820,21.19,74714.5,23.41,-11.93,-12.53,0,*40
1537265156.42,48821,21.19,74716.3,23.41,-12.21,-12.71,0,*4B
1537265157.67,48822,21.19,74714.5,23.41,-13.23,-13.83,0,*47
1537265158.89,48823,21.19,74716.5,23.41,-12.97,-13.65,0,*40
1537265160.13,48824,21.19,74714.0,23.39,-12.25,-12.71,0,*45
1537265161.36,48825,21.19,74714.0,23.39,-11.77,-12.29,0,*4D
1537265162.56,48826,21.19,74716.8,23.39,-12.39,-12.97,0,*42
1537265163.78,48827,21.19,74714.8,23.39,-12.83,-13.43,0,*4A
1537265165.04,48828,21.19,74714.3,23.37,-13.19,-13.79,0,*40
1537265166.29,48829,21.19,74712.3,23.39,-12.57,-13.01,0,*4B
1537265167.55,48830,21.19,74714.8,23.39,-12.11,-12.71,0,*47
1537265168.84,48831,21.19,74716.5,23.37,-11.93,-12.61,0,*40
1537265170.07,48832,21.19,74712.3,23.37,-12.93,-13.55,0,*46
1537265171.32,48833,21.19,74716.3,23.37,-12.57,-13.15,0,*4B
1537265172.56,48834,21.19,74718.3,23.37,-12.43,-12.89,0,*4D
1537265173.82,48835,21.19,74714.5,23.37,-12.21,-12.79,0,*47
1537265175.11,48836,21.19,74714.5,23.37,-12.35,-12.79,0,*41
1537265176.39,48837,21.19,74714.5,23.37,-11.73,-12.07,0,*48
1537265177.65,48838,21.19,74714.8,23.37,-11.73,-12.21,0,*43
1537265178.94,48839,21.19,74712.5,23.37,-11.63,-11.93,0,*49
1537265180.17,48840,21.19,74716.0,23.37,-13.07,-13.69,0,*40
1537265181.4,48841,21.19,74714.8,23.39,-11.89,-12.43,0,*42
1537265182.68,48842,21.19,74718.5,23.37,-11.63,-12.07,0,*4B
1537265183.94,48843,21.19,74716.8,23.39,-11.55,-11.89,0,*44
1537265185.17,48844,21.19,74716.3,23.39,-11.15,-11.55,0,*46
1537265186.42,48845,21.19,74716.0,23.39,-12.11,-12.65,0,*40
1537265187.65,48846,21.19,74716.5,23.39,-13.01,-13.69,0,*4E
1537265188.91,48847,21.19,74716.3,23.37,-14.43,-15.11,0,*49
1537265190.17,48848,21.19,74718.0,23.37,-14.19,-14.79,0,*46
1537265191.45,48849,21.19,74716.8,23.33,-12.79,-13.33,0,*4A
1537265192.71,48850,21.19,74718.5,23.31,-11.67,-11.97,0,*40
1537265193.94,48851,21.19,74714.3,23.31,-11.97,-12.39,0,*49
1537265195.22,48852,21.19,74718.5,23.33,-11.07,-11.51,0,*4C
1537265196.47,48853,21.19,74714.5,23.33,-11.89,-12.39,0,*46
1537265197.75,48854,21.19,74714.5,23.33,-11.97,-12.61,0,*43
1537265199.0,48855,21.19,74718.3,23.33,-12.65,-13.07,0,*4D
1537265200.26,48856,21.19,74714.8,23.33,-12.21,-12.79,0,*46
1537265201.54,48857,21.19,74716.0,23.33,-11.55,-11.93,0,*40
1537265202.77,48858,21.19,74718.3,23.37,-11.11,-11.45,0,*40
1537265204.0,48859,21.19,74716.5,23.39,-11.19,-11.73,0,*42
1537265205.28,48860,21.19,74716.3,23.37,-11.33,-11.85,0,*47
1537265206.51,48861,21.19,74718.8,23.39,-11.07,-11.41,0,*47
1537265207.75,48862,21.19,74714.0,23.39,-10.97,-11.29,0,*42
1537265208.99,48863,21.19,74714.8,23.41,-11.81,-12.25,0,*45
1537265210.27,48864,21.19,74716.5,23.41,-11.97,-12.53,0,*44
1537265211.5,48865,21.19,74718.0,23.41,-12.47,-12.93,0,*47
1537265212.78,48866,21.19,74716.0,23.41,-11.63,-12.07,0,*4C
1537265213.98,48867,21.19,74714.5,23.43,-10.93,-11.15,0,*41
1537265215.22,48868,21.19,74714.8,23.43,-11.23,-11.63,0,*45
1537265216.45,48869,21.19,74718.0,23.43,-11.41,-11.67,0,*44
1537265217.7,48870,21.19,74718.0,23.43,-11.63,-11.97,0,*43
1537265218.93,48871,21.19,74714.5,23.43,-11.23,-11.55,0,*48
1537265220.17,48872,21.19,74708.5,23.43,-12.35,-12.65,0,*4F
1537265221.39,48873,21.19,74716.3,23.43,-12.71,-13.07,0,*4B
1537265222.65,48874,21.19,74718.0,23.43,-12.65,-12.79,0,*41
1537265223.88,48875,21.19,74716.0,23.41,-12.93,-13.23,0,*45
1537265225.1,48876,21.19,74716.5,23.43,-13.65,-14.05,0,*4F
1537265226.33,48877,21.19,74716.0,23.41,-12.93,-13.19,0,*4E
1537265227.59,48878,21.19,74716.8,23.39,-11.55,-11.85,0,*40
1537265228.86,48879,21.19,74714.0,23.41,-11.51,-11.77,0,*47
1537265230.12,48880,21.19,74714.0,23.41,-11.93,-12.47,0,*4F
1537265231.34,48881,21.19,74714.8,23.43,-10.79,-11.11,0,*49
1537265232.57,48882,21.19,74716.5,23.41,-10.93,-11.11,0,*4C
1537265233.77,48883,21.19,74714.8,23.43,-10.85,-11.23,0,*49
1537265235.04,48884,21.19,74718.0,23.45,-11.73,-11.93,0,*4B
1537265236.32,48885,21.19,74718.0,23.45,-11.33,-11.77,0,*44
1537265237.59,48886,21.19,74716.0,23.45,-11.33,-11.73,0,*43
1537265238.87,48887,21.19,74716.0,23.45,-11.89,-12.35,0,*42
1537265240.1,48888,21.19,74718.0,23.47,-12.39,-12.75,0,*43
1537265241.35,48889,21.19,74718.3,23.45,-12.43,-12.79,0,*41
1537265242.6,48890,21.19,74716.8,23.43,-12.11,-12.65,0,*45
1537265243.86,48891,21.19,74718.5,23.45,-11.07,-11.45,0,*47
1537265245.08,48892,21.19,74716.5,23.45,-10.89,-11.19,0,*4A
1537265246.3,48893,21.19,74718.3,23.47,-10.31,-10.71,0,*45
1537265247.5,48894,21.19,74716.3,23.47,-10.05,-10.45,0,*42
1537265248.73,48895,21.19,74716.3,23.51,-9.71,-10.19,0,*76
1537265249.99,48896,21.19,74714.8,23.51,-10.27,-10.79,0,*48
1537265251.25,48897,21.19,74716.3,23.51,-10.97,-11.55,0,*4D
1537265252.47,48898,21.19,74718.8,23.53,-12.03,-12.65,0,*4F
1537265253.67,48899,21.19,74718.5,23.49,-13.23,-13.93,0,*4E
1537265254.9,48900,21.19,74714.8,23.49,-12.79,-13.11,0,*4B
1537265256.18,48901,21.19,74716.3,23.51,-11.93,-12.53,0,*43
1537265257.45,48902,21.25,74716.3,23.51,-12.21,-12.71,0,*4A
1537265258.7,48903,21.19,74716.5,23.51,-11.85,-12.47,0,*43
1537265259.94,48904,21.19,74716.0,23.49,-12.21,-12.83,0,*48
1537265261.19,48905,21.19,74714.0,23.51,-11.81,-12.39,0,*48
1537265262.45,48906,21.19,74716.5,23.51,-11.01,-11.63,0,*4F
1537265263.68,48907,21.19,74718.5,23.49,-11.67,-12.21,0,*42
1537265264.96,48908,21.25,74720.3,23.51,-11.37,-12.07,0,*45
1537265266.18,48909,21.19,74718.8,23.53,-11.81,-12.47,0,*4F
1537265267.46,48910,21.19,74716.0,23.51,-11.97,-12.79,0,*4F
1537265268.75,48911,21.19,74718.8,23.51,-11.97,-12.71,0,*46
1537265270.01,48912,21.19,74712.8,23.51,-12.25,-12.79,0,*47
1537265271.26,48913,21.19,74714.3,23.51,-11.73,-12.21,0,*4B
1537265272.54,48914,21.19,74718.5,23.51,-12.07,-12.57,0,*4D
1537265273.77,48915,21.19,74718.0,23.51,-12.25,-12.97,0,*40
1537265275.04,48916,21.19,74718.5,23.51,-11.97,-12.65,0,*44
1537265276.3,48917,21.19,74714.8,23.51,-11.67,-12.25,0,*4E
1537265277.56,48918,21.19,74718.3,23.51,-11.23,-11.93,0,*4F
1537265278.78,48919,21.19,74714.5,23.51,-13.07,-13.69,0,*4D
1537265280.06,48920,21.19,74714.8,23.51,-12.71,-13.33,0,*48
1537265281.31,48921,21.19,74718.3,23.51,-11.41,-12.07,0,*4F
1537265282.54,48922,21.19,74714.8,23.49,-11.11,-11.67,0,*45
1537265283.8,48923,21.19,74718.8,23.51,-10.89,-11.63,0,*49
1537265285.06,48924,21.19,74714.8,23.53,-11.07,-11.89,0,*4F
1537265286.32,48925,21.25,74720.3,23.53,-11.77,-12.53,0,*4D
1537265287.55,48926,21.19,74718.5,23.53,-12.35,-13.19,0,*44
1537265288.79,48927,21.19,74714.8,23.53,-13.87,-14.89,0,*43
1537265290.03,48928,21.25,74718.8,23.51,-12.57,-13.47,0,*47
1537265291.29,48929,21.19,74716.0,23.51,-11.11,-12.11,0,*45
1537265292.56,48930,21.19,74718.3,23.51,-11.67,-12.65,0,*4F
1537265293.82,48931,21.19,74718.8,23.51,-11.29,-12.25,0,*40
1537265295.1,48932,21.19,74716.0,23.51,-11.67,-12.53,0,*48
1537265296.35,48933,21.19,74716.5,23.51,-11.51,-12.47,0,*49